Weather History for Waukesha, WI

Change the Weather History Date:

Thursday, December 22, 2011

  Actual Average Record
Temperature  
Mean Temperature 28 °F -  
Max Temperature 33 °F 29 °F 53 °F (1957)
Min Temperature 23 °F 14 °F -14 °F (1983)
Degree Days  
Heating Degree Days 37    
Moisture  
Dew Point 26 °F    
Average Humidity 86    
Maximum Humidity 100    
Minimum Humidity 69    
Precipitation  
Precipitation 0.00 in - - ()
Sea Level Pressure  
Sea Level Pressure 30.10 in    
Wind  
Wind Speed 4 mph (NNW)    
Max Wind Speed 14 mph    
Max Gust Speed -    
Visibility 8 miles    
Events Snow    
Averages and records for this station are not official NWS values.
T = Trace of Precipitation, MM = Missing Value Source: NWS Daily Summary

Daily Weather History Graph

Daily Weather History Graph

Search for Another Location

Airport:

Trip Planner

Search our weather history database for the weather conditions in past years. The results will help you decide how hot, cold, wet, or windy it might be!

Date:

Astronomy

Dec. 22, 2011 Rise Set
Actual Time 7:21 AM CST 4:21 PM CST
Civil Twilight 6:49 AM CST 4:53 PM CST
Nautical Twilight 6:13 AM CST 5:29 PM CST
Astronomical Twilight 5:38 AM CST 6:04 PM CST
Moon 5:04 AM CST (12/22) 2:31 PM CST (12/22)
Length of Visible Light 10h 04m
Length of Day
8h 59m
Waning Crescent, 5% of the Moon is Illuminated
Dec 22
Waning Crescent
Dec 24
New
Jan 1
First Quarter
Jan 9
Full
Jan 16
Last Quarter

Hourly Weather History & Observations

Time (CST) Temp. Windchill Dew Point Humidity Pressure Visibility Wind Dir Wind Speed Gust Speed Precip Events Conditions
12:15 AM 32.0 °F 28.7 °F 32.0 °F 100% 29.92 in 7.0 mi West 3.5 mph - N/A   Overcast
12:35 AM 32.0 °F 28.7 °F 32.0 °F 100% 29.92 in 7.0 mi WSW 3.5 mph - N/A   Overcast
12:55 AM 32.0 °F 28.7 °F 32.0 °F 100% 29.93 in 7.0 mi WSW 3.5 mph - N/A   Mostly Cloudy
1:15 AM 32.0 °F - 32.0 °F 100% 29.94 in 7.0 mi Calm Calm - N/A   Mostly Cloudy
1:35 AM 32.0 °F - 32.0 °F 100% 29.95 in 7.0 mi Calm Calm - N/A   Mostly Cloudy
1:55 AM 32.0 °F - 32.0 °F 100% 29.95 in 5.0 mi Calm Calm - N/A   Mostly Cloudy
2:15 AM 32.0 °F - 32.0 °F 100% 29.97 in 5.0 mi Calm Calm - N/A   Overcast
2:35 AM 32.0 °F - 32.0 °F 100% 29.98 in 5.0 mi Calm Calm - N/A   Overcast
2:55 AM 32.0 °F - 32.0 °F 100% 29.98 in 5.0 mi Calm Calm - N/A   Overcast
3:15 AM 32.0 °F - 32.0 °F 100% 29.98 in 5.0 mi Calm Calm - N/A   Overcast
3:35 AM 32.0 °F - 32.0 °F 100% 29.98 in 5.0 mi Calm Calm - N/A   Overcast
3:55 AM 32.0 °F - 32.0 °F 100% 29.98 in 5.0 mi Calm Calm - N/A   Overcast
4:15 AM 32.0 °F 28.7 °F 32.0 °F 100% 29.99 in 5.0 mi NW 3.5 mph - N/A   Overcast
4:35 AM 32.0 °F 28.7 °F 32.0 °F 100% 30.00 in 5.0 mi NW 3.5 mph - N/A   Overcast
5:45 AM 32.0 °F 27.5 °F 30.2 °F 93% 30.03 in 4.0 mi NNW 4.6 mph - N/A   Mostly Cloudy
6:45 AM 32.0 °F - 30.2 °F 93% 30.04 in 4.0 mi Calm Calm - N/A Snow Light Snow
7:20 AM 30.2 °F 24.3 °F 30.2 °F 100% 30.04 in 4.0 mi North 5.8 mph - N/A Snow Light Snow
7:45 AM 30.2 °F 22.6 °F 28.4 °F 93% 30.03 in 3.0 mi North 8.1 mph - N/A Snow Light Snow
8:45 AM 30.2 °F 23.4 °F 28.4 °F 93% 30.08 in 4.0 mi NNW 6.9 mph - N/A   Overcast
10:45 AM 30.2 °F 22.6 °F 28.4 °F 93% 30.12 in 10.0 mi North 8.1 mph - N/A   Overcast
11:45 AM 33.8 °F 27.0 °F 28.4 °F 81% 30.13 in 10.0 mi North 8.1 mph - N/A   Overcast
12:45 PM 33.8 °F 25.8 °F 26.6 °F 75% 30.11 in 10.0 mi North 10.4 mph - N/A   Overcast
1:45 PM 33.8 °F 27.0 °F 26.6 °F 75% 30.11 in 10.0 mi North 8.1 mph - N/A   Overcast
2:45 PM 32.0 °F 23.0 °F 26.6 °F 80% 30.14 in 10.0 mi NW 11.5 mph - N/A   Overcast
3:45 PM 30.2 °F 22.6 °F 26.6 °F 86% 30.16 in 10.0 mi NNW 8.1 mph - N/A   Overcast
4:45 PM 30.2 °F 21.9 °F 24.8 °F 80% 30.18 in 10.0 mi NNW 9.2 mph - N/A   Mostly Cloudy
5:45 PM 30.2 °F 21.9 °F 24.8 °F 80% 30.19 in 10.0 mi North 9.2 mph - N/A   Overcast
6:45 PM 28.4 °F 18.5 °F 21.2 °F 74% 30.20 in 10.0 mi NNW 11.5 mph - N/A   Overcast
8:15 PM 28.4 °F 17.5 °F 19.4 °F 69% 30.22 in 10.0 mi NNW 13.8 mph - N/A   Overcast
8:35 PM 28.4 °F 19.1 °F 19.4 °F 69% 30.23 in 10.0 mi NNW 10.4 mph - N/A   Overcast
8:45 PM 26.6 °F 15.2 °F 19.4 °F 74% 30.23 in 10.0 mi NNW 13.8 mph - N/A   Overcast
8:55 PM 28.4 °F 19.1 °F 19.4 °F 69% 30.23 in 10.0 mi NNW 10.4 mph - N/A   Overcast
9:15 PM 28.4 °F 21.2 °F 19.4 °F 69% 30.24 in 10.0 mi NNW 6.9 mph - N/A   Overcast
9:35 PM 26.6 °F 16.2 °F 19.4 °F 74% 30.24 in 10.0 mi NNW 11.5 mph - N/A   Overcast
9:55 PM 26.6 °F 18.2 °F 19.4 °F 74% 30.25 in 10.0 mi NNW 8.1 mph - N/A   Overcast
10:15 PM 26.6 °F 19.1 °F 19.4 °F 74% 30.26 in 10.0 mi NW 6.9 mph - N/A   Overcast
10:35 PM 26.6 °F 19.1 °F 17.6 °F 69% 30.27 in 10.0 mi NNW 6.9 mph - N/A   Overcast
10:55 PM 26.6 °F 21.2 °F 17.6 °F 69% 30.27 in 10.0 mi NW 4.6 mph - N/A   Overcast
11:15 PM 24.8 °F 19.1 °F 17.6 °F 74% 30.27 in 10.0 mi NW 4.6 mph - N/A   Overcast
11:35 PM 23.0 °F 15.8 °F 17.6 °F 80% 30.27 in 10.0 mi WNW 5.8 mph - N/A   Mostly Cloudy
11:55 PM 23.0 °F 13.9 °F 17.6 °F 80% 30.27 in 10.0 mi NW 8.1 mph - N/A   Clear